Meath Environmental Platform

Observations for Trim Patrick St

Time AQI Temp °C Hum % Pres Pa CO μg/m³ H₂S μg/m³ NO μg/m³ NO₂ μg/m³ O₃ μg/m³ SO₂ μg/m³ PM1 μg/m³ PM2.5 μg/m³ PM10 μg/m³
Monday 3 August 2026
06:17 1 15.8 80 38,460 0.22 0 1.66 16.76 39.46 0 4.57 8.68 9.55
06:16 1 15.8 80 38,460 0.23 0 1.85 15.29 41.03 0 6.29 10.8 11.88
06:15 1 15.8 80 38,460 0.22 2.16 1.77 27.01 46.89 0 5.43 10.13 11.14
06:14 1 15.8 80 38,460 0.23 1.14 1.64 23.81 33.42 0 5.43 9.4 10.34
06:13 1 15.8 80 38,460 0.23 1.66 1.64 29.27 35.33 0 5.43 9.4 10.34
06:12 1 15.8 81 38,460 0.23 0.51 1.72 22.76 37.06 0 6.29 8.68 9.54
06:11 1 15.7 81 38,460 0.22 1.37 1.77 23.54 38.87 0 5.43 8.67 9.54
06:10 1 15.7 81 38,460 0.23 0.33 1.72 17.21 34.96 0 4.57 9.37 10.3
06:09 1 15.7 80 38,460 0.23 2.73 1.81 30.23 40.43 0 5.43 9.4 10.34
06:08 1 15.7 81 38,460 0.23 3.25 1.93 25.16 42.69 0 5.43 10.07 11.08
06:07 1 15.7 81 38,460 0.23 4.22 1.9 28.39 36.23 0 6.29 10.76 11.84
06:06 1 15.7 81 38,460 0.24 1.61 1.77 26.11 35.82 0 4.57 7.28 8.01
06:05 1 15.7 81 38,460 0.22 1.79 1.89 26.82 30.18 0 5.43 10.77 11.85
06:04 1 15.6 81 38,460 0.23 0.02 1.9 19.29 39.43 0 4.57 9.37 10.3
06:03 1 15.7 81 38,460 0.23 0 1.82 19.25 40.17 0 5.43 9.37 10.3
06:02 1 15.6 81 38,460 0.22 0 1.81 15.41 42.77 0 4.57 8.67 9.54
06:01 1 15.6 80 38,460 0.23 0.18 1.89 17.51 43.13 0 5.43 8.68 9.55
06:00 1 15.6 81 38,460 0.21 1.37 1.93 27.17 31.67 0 5.43 9.37 10.3
05:59 1 15.6 81 38,460 0.22 0.7 1.94 21.28 39.01 0 4.57 7.96 8.76
05:57 1 15.6 80 38,460 0.22 3.02 1.95 27.86 41.23 0 3.71 7.29 8.02